Location: Oberwangen
(47.4286°N, 8.9679°E)
Time: 10:16:47
(UTC+00:00)

Cosmos 1816 Rocket - Pass Details

Date: 19 October 2021
Orbit: 952 x 998 km, 82.9° (Epoch: 08 December)

Event Time Altitude Azimuth Distance (km) Brightness Sun altitude
Rises 17:58:31 0° 3° (N) 3,644 7.5 -15.9°
Reaches altitude 10° 18:02:26 10° 28° (NNE) 2,698 6.6 -16.5°
Enters shadow 18:04:35 14° 48° (NE) 2,433 6.2 -16.9°
